Location: Newark
(34.9500°N, 139.9667°E)
Time: 14:15:16
(UTC+00:00)

Vanguard 1 Rocket - Pass Details

Date: 15 December 2019
Orbit: 650 x 4226 km, 34.3° (Epoch: 19 January)

Event Time Altitude Azimuth Distance (km) Brightness Sun altitude
Rises 15:59:04 0° 284° (WNW) 5,704 - -68.4°
Reaches altitude 10° 16:03:50 10° 279° (W) 4,095 - -67.5°
Maximum altitude 16:12:31 38° 215° (SW) 1,631 - -65.9°
Drops below altitude 10° 16:17:42 10° 147° (SSE) 2,432 - -64.9°
Sets 16:19:50 0° 138° (SE) 3,180 - -64.5°
